Terminal Aerodrome Forecast
Issued by NWS Sterling, VA

Current Version | Previous Version | Graphics & Text | Print | Product List | Glossary On
Versions: 1 2 3 4 5 6 7 8 9 10 11 12 13 14 15 16 17 18 19 20 21 22 23 24
000
FTUS41 KLWX 191700
TAFDCA
TAF
KDCA 191733Z 1918/2018 09007KT P6SM SCT025 BKN050
     FM192100 10007KT P6SM SCT025 BKN050
     FM200600 VRB03KT P6SM BKN050 BKN130=

USA.gov is the U.S. government's official web portal to all federal, state and local government web resources and services.